UAL8106 KEWR-KLAS

Flight info

Callsign UAL8106
Flight time 5h 12m
Altitude 32000
Route PORTT4 NEWEL J60 DJB JOT IOW OVR MCK HBU J146 DVC TYEGR CHOWW4
Aircraft B739/M-SDE2E3FGHIRWXY/LB1

Departure

Time 2026-05-03 20:15
Airport Newark Liberty International Airport (KEWR)

Arrival

Time 2026-05-04 01:27
Airport Harry Reid International Airport (KLAS)
Time Latitude Longitude Altitude Speed Heading
2026-05-03 20:15 40.61298 -74.21764 1384 ft 219 kts 255°
2026-05-03 20:15 40.60806 -74.23744 1586 ft 230 kts 256°
2026-05-03 20:15 40.60239 -74.25768 1767 ft 243 kts 253°
2026-05-03 20:15 40.59639 -74.27894 2119 ft 246 kts 259°
2026-05-03 20:16 40.59465 -74.30080 2565 ft 238 kts 283°
2026-05-03 20:16 40.60032 -74.32050 3131 ft 230 kts 300°
2026-05-03 20:16 40.60816 -74.33924 3542 ft 238 kts 299°
2026-05-03 20:16 40.61582 -74.35856 4107 ft 240 kts 298°
2026-05-03 20:17 40.62332 -74.37823 4679 ft 242 kts 298°
2026-05-03 20:17 40.63093 -74.39829 5260 ft 245 kts 298°
2026-05-03 20:17 40.63848 -74.41813 5831 ft 246 kts 298°
2026-05-03 20:17 40.64622 -74.43842 6411 ft 248 kts 298°
2026-05-03 20:18 40.65385 -74.45846 6984 ft 248 kts 298°
2026-05-03 20:18 40.66161 -74.47891 7571 ft 250 kts 298°
2026-05-03 20:18 40.66929 -74.49912 8152 ft 249 kts 298°
2026-05-03 20:18 40.67710 -74.51967 8749 ft 250 kts 298°
2026-05-03 20:19 40.68488 -74.54012 9348 ft 251 kts 298°
2026-05-03 20:19 40.69270 -74.56069 9950 ft 252 kts 298°
2026-05-03 20:19 40.70054 -74.58136 10376 ft 260 kts 298°
2026-05-03 20:19 40.70887 -74.60331 10726 ft 271 kts 298°
2026-05-03 20:20 40.71738 -74.62573 11058 ft 282 kts 298°
2026-05-03 20:20 40.72642 -74.64954 11393 ft 293 kts 298°
2026-05-03 20:20 40.73574 -74.67415 11724 ft 304 kts 298°
2026-05-03 20:20 40.74536 -74.69957 12054 ft 315 kts 298°
2026-05-03 20:21 40.75514 -74.72542 12380 ft 319 kts 298°
2026-05-03 20:21 40.76506 -74.75175 12708 ft 319 kts 298°
2026-05-03 20:21 40.77497 -74.77807 13157 ft 319 kts 298°
2026-05-03 20:21 40.78483 -74.80424 13725 ft 321 kts 298°
2026-05-03 20:22 40.79471 -74.83051 14310 ft 323 kts 298°
2026-05-03 20:22 40.80473 -74.85715 14902 ft 324 kts 298°
2026-05-03 20:22 40.81479 -74.88391 15422 ft 327 kts 298°
2026-05-03 20:22 40.82483 -74.91062 15909 ft 330 kts 298°
2026-05-03 20:23 40.83509 -74.93797 16399 ft 334 kts 298°
2026-05-03 20:23 40.84547 -74.96567 16887 ft 337 kts 298°
2026-05-03 20:23 40.85582 -74.99331 17371 ft 340 kts 298°
2026-05-03 20:23 40.86634 -75.02143 17866 ft 342 kts 298°
2026-05-03 20:24 40.87691 -75.04970 18358 ft 344 kts 298°
2026-05-03 20:24 40.88750 -75.07806 18858 ft 345 kts 297°
2026-05-03 20:24 40.89786 -75.10691 19364 ft 347 kts 295°
2026-05-03 20:24 40.90581 -75.13691 19866 ft 350 kts 287°
2026-05-03 20:25 40.90973 -75.16904 20377 ft 355 kts 277°
2026-05-03 20:25 40.90973 -75.20137 20881 ft 358 kts 271°
2026-05-03 20:25 40.90680 -75.23422 21394 ft 362 kts 265°
2026-05-03 20:25 40.90096 -75.26672 21921 ft 364 kts 259°
2026-05-03 20:26 40.89352 -75.29881 22352 ft 367 kts 258°
2026-05-03 20:26 40.88552 -75.33118 22766 ft 369 kts 258°
2026-05-03 20:26 40.87756 -75.36324 23175 ft 370 kts 258°
2026-05-03 20:26 40.86954 -75.39593 23591 ft 372 kts 258°
2026-05-03 20:27 40.86166 -75.42844 24004 ft 372 kts 258°
2026-05-03 20:27 40.85392 -75.46066 24408 ft 373 kts 258°
2026-05-03 20:27 40.84608 -75.49348 24813 ft 373 kts 258°
2026-05-03 20:27 40.83827 -75.52629 25219 ft 373 kts 258°
2026-05-03 20:28 40.83054 -75.55876 25542 ft 375 kts 258°
2026-05-03 20:28 40.82274 -75.59164 25809 ft 378 kts 258°
2026-05-03 20:28 40.81488 -75.62476 26071 ft 380 kts 258°
2026-05-03 20:28 40.80688 -75.65834 26333 ft 383 kts 257°
2026-05-03 20:29 40.79877 -75.69236 26599 ft 386 kts 257°
2026-05-03 20:29 40.79063 -75.72646 26864 ft 389 kts 257°
2026-05-03 20:29 40.78246 -75.76058 27128 ft 391 kts 257°
2026-05-03 20:29 40.77426 -75.79478 27392 ft 394 kts 257°
2026-05-03 20:30 40.76605 -75.82896 27656 ft 396 kts 257°
2026-05-03 20:30 40.75763 -75.86398 27920 ft 398 kts 256°
2026-05-03 20:30 40.74923 -75.89884 28182 ft 400 kts 257°
2026-05-03 20:30 40.74082 -75.93372 28511 ft 400 kts 256°
2026-05-03 20:31 40.73238 -75.96862 28934 ft 397 kts 256°
2026-05-03 20:31 40.72398 -76.00320 29360 ft 395 kts 256°
2026-05-03 20:31 40.71567 -76.03741 29779 ft 392 kts 256°
2026-05-03 20:31 40.70746 -76.07121 30195 ft 388 kts 256°
2026-05-03 20:32 40.69916 -76.10533 30621 ft 384 kts 256°
2026-05-03 20:32 40.69104 -76.13868 30933 ft 383 kts 256°
2026-05-03 20:32 40.68284 -76.17239 31174 ft 382 kts 256°
2026-05-03 20:32 40.67572 -76.20602 31376 ft 379 kts 261°
2026-05-03 20:33 40.67155 -76.24043 31571 ft 374 kts 268°
2026-05-03 20:33 40.67088 -76.27465 31748 ft 371 kts 274°
2026-05-03 20:33 40.67354 -76.30839 31908 ft 369 kts 280°
2026-05-03 20:34 40.68422 -76.37530 31955 ft 375 kts 283°
2026-05-03 20:34 40.69587 -76.44326 31953 ft 382 kts 283°
2026-05-03 20:35 40.70686 -76.51236 31951 ft 389 kts 282°
2026-05-03 20:35 40.71741 -76.58208 31951 ft 388 kts 282°
2026-05-03 20:36 40.72765 -76.65130 31942 ft 388 kts 281°
2026-05-03 20:36 40.73800 -76.72186 31945 ft 389 kts 281°
2026-05-03 20:37 40.74819 -76.79170 31944 ft 388 kts 281°
2026-05-03 20:37 40.75833 -76.86154 31955 ft 388 kts 281°
2026-05-03 20:38 40.76848 -76.93166 31948 ft 388 kts 281°
2026-05-03 20:38 40.77850 -77.00130 31949 ft 387 kts 281°
2026-05-03 20:39 40.78857 -77.07156 31946 ft 391 kts 281°
2026-05-03 20:39 40.79866 -77.14221 31944 ft 391 kts 281°
2026-05-03 20:40 40.80874 -77.21328 31945 ft 390 kts 281°
2026-05-03 20:40 40.81867 -77.28355 31944 ft 391 kts 281°
2026-05-03 20:41 40.82860 -77.35414 31950 ft 389 kts 281°
2026-05-03 20:41 40.83850 -77.42474 31945 ft 392 kts 281°
2026-05-03 20:42 40.84833 -77.49535 31954 ft 390 kts 281°
2026-05-03 20:42 40.85811 -77.56580 31960 ft 390 kts 281°
2026-05-03 20:43 40.86785 -77.63638 31963 ft 391 kts 281°
2026-05-03 20:43 40.87753 -77.70690 31964 ft 392 kts 281°
2026-05-03 20:44 40.88718 -77.77751 31971 ft 391 kts 281°
2026-05-03 20:44 40.89682 -77.84834 31978 ft 390 kts 281°
2026-05-03 20:45 40.90641 -77.91918 31975 ft 391 kts 281°
2026-05-03 20:45 40.91595 -77.98991 31972 ft 391 kts 281°
2026-05-03 20:46 40.92509 -78.06096 31975 ft 391 kts 280°
2026-05-03 20:46 40.93375 -78.13182 31963 ft 391 kts 280°
2026-05-03 20:47 40.94243 -78.20298 31967 ft 390 kts 280°
2026-05-03 20:47 40.95108 -78.27378 31970 ft 390 kts 280°
2026-05-03 20:48 40.95970 -78.34462 31974 ft 391 kts 281°
2026-05-03 20:48 40.96833 -78.41587 31980 ft 389 kts 281°
2026-05-03 20:49 40.97683 -78.48625 31984 ft 390 kts 281°
2026-05-03 20:49 40.98534 -78.55711 31977 ft 390 kts 281°
2026-05-03 20:50 40.99386 -78.62846 31981 ft 390 kts 280°
2026-05-03 20:50 41.00232 -78.69969 31974 ft 391 kts 280°
2026-05-03 20:51 41.01070 -78.77078 31975 ft 391 kts 280°
2026-05-03 20:51 41.01904 -78.84180 31982 ft 390 kts 280°
2026-05-03 20:52 41.02731 -78.91258 31981 ft 389 kts 280°
2026-05-03 20:52 41.03556 -78.98355 31985 ft 389 kts 280°
2026-05-03 20:53 41.04375 -79.05445 31982 ft 390 kts 280°
2026-05-03 20:53 41.05191 -79.12552 31982 ft 389 kts 280°
2026-05-03 20:54 41.05999 -79.19622 31980 ft 388 kts 280°
2026-05-03 20:54 41.07201 -79.30228 31970 ft 388 kts 280°
2026-05-03 20:55 41.07996 -79.37292 31963 ft 388 kts 281°
2026-05-03 20:55 41.08789 -79.44366 31969 ft 386 kts 280°
2026-05-03 20:56 41.09576 -79.51435 31968 ft 387 kts 281°
2026-05-03 20:56 41.10353 -79.58456 31967 ft 386 kts 280°
2026-05-03 20:57 41.11134 -79.65560 31971 ft 386 kts 280°
2026-05-03 20:57 41.11908 -79.72636 31967 ft 386 kts 280°
2026-05-03 20:58 41.12676 -79.79696 31966 ft 386 kts 280°
2026-05-03 20:58 41.13438 -79.86746 31966 ft 386 kts 280°
2026-05-03 20:59 41.14198 -79.93801 31963 ft 386 kts 280°
2026-05-03 20:59 41.14949 -80.00824 31959 ft 384 kts 280°
2026-05-03 21:00 41.15568 -80.06647 31965 ft 383 kts 280°
2026-05-03 21:00 41.16434 -80.14841 31961 ft 383 kts 280°
2026-05-03 21:01 41.17166 -80.21811 31966 ft 382 kts 280°
2026-05-03 21:01 41.17898 -80.28825 31975 ft 383 kts 280°
2026-05-03 21:02 41.18624 -80.35830 31975 ft 383 kts 280°
2026-05-03 21:02 41.19344 -80.42810 31989 ft 381 kts 280°
2026-05-03 21:03 41.20061 -80.49802 31992 ft 381 kts 280°
2026-05-03 21:03 41.20770 -80.56759 31993 ft 380 kts 280°
2026-05-03 21:04 41.21476 -80.63729 31994 ft 382 kts 280°
2026-05-03 21:04 41.22179 -80.70721 31989 ft 380 kts 279°
2026-05-03 21:05 41.22872 -80.77664 31995 ft 380 kts 279°
2026-05-03 21:05 41.23564 -80.84639 31992 ft 379 kts 279°
2026-05-03 21:06 41.24249 -80.91578 31990 ft 379 kts 279°
2026-05-03 21:06 41.24930 -80.98539 31978 ft 380 kts 279°
2026-05-03 21:07 41.25607 -81.05484 31974 ft 380 kts 279°
2026-05-03 21:07 41.26285 -81.12477 31977 ft 380 kts 279°
2026-05-03 21:08 41.26955 -81.19434 31973 ft 380 kts 279°
2026-05-03 21:08 41.27622 -81.26393 31973 ft 381 kts 279°
2026-05-03 21:09 41.28285 -81.33383 31973 ft 380 kts 279°
2026-05-03 21:09 41.28945 -81.40398 31972 ft 380 kts 279°
2026-05-03 21:10 41.29599 -81.47367 31967 ft 380 kts 279°
2026-05-03 21:10 41.30244 -81.54299 31968 ft 380 kts 279°
2026-05-03 21:11 41.30895 -81.61334 31965 ft 381 kts 279°
2026-05-03 21:11 41.31535 -81.68304 31972 ft 379 kts 278°
2026-05-03 21:12 41.32153 -81.75092 31966 ft 381 kts 278°
2026-05-03 21:12 41.32781 -81.82044 31966 ft 379 kts 278°
2026-05-03 21:13 41.33406 -81.88991 31958 ft 380 kts 278°
2026-05-03 21:13 41.34029 -81.95985 31960 ft 379 kts 278°
2026-05-03 21:14 41.34644 -82.02904 31959 ft 380 kts 278°
2026-05-03 21:14 41.35260 -82.09905 31959 ft 380 kts 278°
2026-05-03 21:15 41.35871 -82.16927 31957 ft 380 kts 278°
2026-05-03 21:15 41.36321 -82.23917 31961 ft 381 kts 276°
2026-05-03 21:16 41.36683 -82.30974 31956 ft 381 kts 276°
2026-05-03 21:16 41.37051 -82.37981 31946 ft 381 kts 276°
2026-05-03 21:17 41.37431 -82.45035 31955 ft 381 kts 276°
2026-05-03 21:17 41.37815 -82.52095 31935 ft 383 kts 276°
2026-05-03 21:18 41.38197 -82.59154 31926 ft 382 kts 276°
2026-05-03 21:18 41.38572 -82.66218 31931 ft 383 kts 276°
2026-05-03 21:19 41.38945 -82.73315 31940 ft 381 kts 276°
2026-05-03 21:19 41.39314 -82.80368 31932 ft 383 kts 276°
2026-05-03 21:20 41.39680 -82.87460 31931 ft 384 kts 276°
2026-05-03 21:20 41.40038 -82.94518 31938 ft 383 kts 276°
2026-05-03 21:21 41.40392 -83.01597 31934 ft 385 kts 276°
2026-05-03 21:21 41.40747 -83.08721 31937 ft 384 kts 276°
2026-05-03 21:22 41.41095 -83.15826 31931 ft 384 kts 276°
2026-05-03 21:22 41.41437 -83.22881 31928 ft 384 kts 276°
2026-05-03 21:23 41.41776 -83.29983 31929 ft 384 kts 276°
2026-05-03 21:23 41.42108 -83.37046 31933 ft 384 kts 276°
2026-05-03 21:24 41.42439 -83.44148 31936 ft 384 kts 276°
2026-05-03 21:24 41.42767 -83.51285 31940 ft 384 kts 276°
2026-05-03 21:25 41.43090 -83.58366 31937 ft 385 kts 276°
2026-05-03 21:25 41.43407 -83.65520 31938 ft 385 kts 275°
2026-05-03 21:26 41.43722 -83.72611 31941 ft 385 kts 275°
2026-05-03 21:26 41.44031 -83.79730 31939 ft 385 kts 275°
2026-05-03 21:27 41.44338 -83.86884 31940 ft 386 kts 275°
2026-05-03 21:27 41.44637 -83.93996 31941 ft 386 kts 275°
2026-05-03 21:28 41.44932 -84.01136 31947 ft 386 kts 275°
2026-05-03 21:28 41.45227 -84.08287 31947 ft 386 kts 275°
2026-05-03 21:29 41.45516 -84.15424 31942 ft 384 kts 275°
2026-05-03 21:29 41.45798 -84.22503 31943 ft 385 kts 275°
2026-05-03 21:30 41.46075 -84.29654 31951 ft 386 kts 275°
2026-05-03 21:30 41.46350 -84.36824 31936 ft 386 kts 275°
2026-05-03 21:31 41.46619 -84.43954 31936 ft 388 kts 275°
2026-05-03 21:31 41.46886 -84.51128 31937 ft 387 kts 275°
2026-05-03 21:32 41.47147 -84.58285 31944 ft 387 kts 275°
2026-05-03 21:32 41.47405 -84.65450 31943 ft 387 kts 275°
2026-05-03 21:33 41.47659 -84.72621 31932 ft 386 kts 275°
2026-05-03 21:33 41.47910 -84.79745 31939 ft 386 kts 275°
2026-05-03 21:34 41.48155 -84.86909 31940 ft 385 kts 275°
2026-05-03 21:34 41.48397 -84.94069 31935 ft 387 kts 275°
2026-05-03 21:35 41.48632 -85.01213 31936 ft 386 kts 275°
2026-05-03 21:35 41.48863 -85.08392 31942 ft 388 kts 275°
2026-05-03 21:36 41.49089 -85.15565 31945 ft 387 kts 275°
2026-05-03 21:36 41.49310 -85.22722 31946 ft 387 kts 275°
2026-05-03 21:37 41.49531 -85.29936 31934 ft 388 kts 275°
2026-05-03 21:37 41.49745 -85.37106 31930 ft 388 kts 275°
2026-05-03 21:38 41.49952 -85.44275 31936 ft 388 kts 275°
2026-05-03 21:38 41.50153 -85.51463 31925 ft 388 kts 275°
2026-05-03 21:39 41.50353 -85.58650 31924 ft 388 kts 275°
2026-05-03 21:39 41.50549 -85.65829 31917 ft 389 kts 275°
2026-05-03 21:40 41.50743 -85.73070 31915 ft 389 kts 274°
2026-05-03 21:40 41.50933 -85.80255 31923 ft 389 kts 274°
2026-05-03 21:41 41.51119 -85.87476 31915 ft 389 kts 275°
2026-05-03 21:41 41.51297 -85.94672 31911 ft 390 kts 275°
2026-05-03 21:42 41.51469 -86.01901 31911 ft 388 kts 275°
2026-05-03 21:42 41.51638 -86.09100 31903 ft 390 kts 275°
2026-05-03 21:43 41.51804 -86.16322 31902 ft 388 kts 275°
2026-05-03 21:43 41.51966 -86.23527 31906 ft 389 kts 275°
2026-05-03 21:44 41.52122 -86.30719 31891 ft 388 kts 275°
2026-05-03 21:44 41.52273 -86.37924 31895 ft 388 kts 275°
2026-05-03 21:45 41.52421 -86.45133 31895 ft 390 kts 275°
2026-05-03 21:45 41.52562 -86.52346 31892 ft 388 kts 275°
2026-05-03 21:46 41.52700 -86.59522 31892 ft 389 kts 275°
2026-05-03 21:46 41.52831 -86.66773 31889 ft 388 kts 274°
2026-05-03 21:47 41.52960 -86.73965 31879 ft 389 kts 274°
2026-05-03 21:47 41.53085 -86.81157 31886 ft 387 kts 274°
2026-05-03 21:48 41.53203 -86.88354 31878 ft 389 kts 274°
2026-05-03 21:48 41.53315 -86.95540 31880 ft 388 kts 274°
2026-05-03 21:49 41.53424 -87.02720 31879 ft 388 kts 275°
2026-05-03 21:49 41.53531 -87.09941 31879 ft 387 kts 275°
2026-05-03 21:50 41.53631 -87.17087 31873 ft 388 kts 274°
2026-05-03 21:50 41.53727 -87.24262 31871 ft 388 kts 275°
2026-05-03 21:51 41.53817 -87.31491 31866 ft 388 kts 275°
2026-05-03 21:51 41.53905 -87.38641 31868 ft 385 kts 274°
2026-05-03 21:52 41.53988 -87.45812 31868 ft 386 kts 274°
2026-05-03 21:52 41.54069 -87.53026 31862 ft 387 kts 275°
2026-05-03 21:53 41.54143 -87.60174 31860 ft 386 kts 275°
2026-05-03 21:53 41.54214 -87.67367 31851 ft 387 kts 274°
2026-05-03 21:54 41.54279 -87.74519 31856 ft 385 kts 274°
2026-05-03 21:54 41.54342 -87.81700 31848 ft 387 kts 274°
2026-05-03 21:55 41.54399 -87.88861 31846 ft 386 kts 274°
2026-05-03 21:55 41.54448 -87.95985 31848 ft 386 kts 274°
2026-05-03 21:56 41.54496 -88.03162 31841 ft 387 kts 274°
2026-05-03 21:56 41.54541 -88.10350 31840 ft 385 kts 274°
2026-05-03 21:57 41.54579 -88.17462 31842 ft 384 kts 274°
2026-05-03 21:57 41.54610 -88.24616 31842 ft 384 kts 274°
2026-05-03 21:58 41.54641 -88.31702 31840 ft 384 kts 274°
2026-05-03 21:58 41.54675 -88.38847 31836 ft 385 kts 275°
2026-05-03 21:59 41.54714 -88.45958 31830 ft 384 kts 275°
2026-05-03 21:59 41.54748 -88.53091 31825 ft 383 kts 274°
2026-05-03 22:00 41.54777 -88.60198 31823 ft 384 kts 275°
2026-05-03 22:00 41.54798 -88.67335 31814 ft 383 kts 274°
2026-05-03 22:01 41.54815 -88.74433 31817 ft 382 kts 274°
2026-05-03 22:01 41.54829 -88.81536 31812 ft 383 kts 274°
2026-05-03 22:02 41.54841 -88.88612 31809 ft 383 kts 274°
2026-05-03 22:02 41.54847 -88.95700 31810 ft 382 kts 274°
2026-05-03 22:03 41.54848 -89.02810 31807 ft 383 kts 274°
2026-05-03 22:03 41.54843 -89.09889 31804 ft 381 kts 274°
2026-05-03 22:04 41.54836 -89.16975 31799 ft 383 kts 274°
2026-05-03 22:04 41.54823 -89.24031 31809 ft 380 kts 274°
2026-05-03 22:05 41.54805 -89.31089 31808 ft 382 kts 274°
2026-05-03 22:05 41.54784 -89.38191 31805 ft 380 kts 274°
2026-05-03 22:06 41.54758 -89.45249 31807 ft 381 kts 274°
2026-05-03 22:06 41.54730 -89.52293 31805 ft 380 kts 274°
2026-05-03 22:07 41.54695 -89.59314 31805 ft 380 kts 274°
2026-05-03 22:07 41.54658 -89.66393 31803 ft 380 kts 274°
2026-05-03 22:08 41.54616 -89.73452 31808 ft 379 kts 274°
2026-05-03 22:08 41.54569 -89.80486 31808 ft 380 kts 274°
2026-05-03 22:09 41.54517 -89.87536 31807 ft 382 kts 274°
2026-05-03 22:10 41.54432 -89.98167 31813 ft 380 kts 273°
2026-05-03 22:10 41.54370 -90.05199 31809 ft 379 kts 274°
2026-05-03 22:11 41.54304 -90.12247 31811 ft 379 kts 274°
2026-05-03 22:11 41.54235 -90.19270 31804 ft 379 kts 274°
2026-05-03 22:12 41.54161 -90.26279 31804 ft 380 kts 274°
2026-05-03 22:12 41.54082 -90.33347 31804 ft 379 kts 274°
2026-05-03 22:13 41.53998 -90.40351 31810 ft 380 kts 274°
2026-05-03 22:13 41.53910 -90.47395 31810 ft 379 kts 274°
2026-05-03 22:14 41.53818 -90.54423 31811 ft 379 kts 274°
2026-05-03 22:14 41.53723 -90.61419 31811 ft 378 kts 274°
2026-05-03 22:15 41.53624 -90.68417 31813 ft 379 kts 273°
2026-05-03 22:15 41.53521 -90.75455 31812 ft 377 kts 273°
2026-05-03 22:16 41.53412 -90.82467 31804 ft 378 kts 273°
2026-05-03 22:16 41.53299 -90.89459 31801 ft 378 kts 273°
2026-05-03 22:17 41.53182 -90.96499 31807 ft 378 kts 273°
2026-05-03 22:17 41.53061 -91.03450 31806 ft 377 kts 273°
2026-05-03 22:18 41.52934 -91.10458 31806 ft 379 kts 273°
2026-05-03 22:18 41.52805 -91.17479 31805 ft 378 kts 273°
2026-05-03 22:19 41.52671 -91.24477 31803 ft 377 kts 273°
2026-05-03 22:19 41.52532 -91.31490 31803 ft 377 kts 274°
2026-05-03 22:20 41.52393 -91.38475 31801 ft 378 kts 274°
2026-05-03 22:20 41.52246 -91.45435 31808 ft 375 kts 273°
2026-05-03 22:21 41.52096 -91.52376 31809 ft 376 kts 273°
2026-05-03 22:21 41.51942 -91.59356 31808 ft 376 kts 273°
2026-05-03 22:22 41.51668 -91.66293 31812 ft 377 kts 270°
2026-05-03 22:22 41.51159 -91.73311 31810 ft 378 kts 270°
2026-05-03 22:23 41.50639 -91.80276 31812 ft 378 kts 270°
2026-05-03 22:23 41.50138 -91.87252 31811 ft 377 kts 270°
2026-05-03 22:24 41.49642 -91.94225 31818 ft 376 kts 270°
2026-05-03 22:24 41.49150 -92.01166 31817 ft 375 kts 270°
2026-05-03 22:25 41.48659 -92.08115 31817 ft 377 kts 270°
2026-05-03 22:25 41.48166 -92.15022 31813 ft 374 kts 270°
2026-05-03 22:26 41.47666 -92.21952 31813 ft 375 kts 270°
2026-05-03 22:26 41.47162 -92.28867 31816 ft 374 kts 270°
2026-05-03 22:27 41.46658 -92.35765 31816 ft 375 kts 270°
2026-05-03 22:27 41.46147 -92.42690 31821 ft 376 kts 270°
2026-05-03 22:28 41.45629 -92.49610 31826 ft 376 kts 270°
2026-05-03 22:28 41.45106 -92.56540 31828 ft 374 kts 270°
2026-05-03 22:29 41.44584 -92.63444 31831 ft 376 kts 270°
2026-05-03 22:29 41.44055 -92.70404 31835 ft 376 kts 270°
2026-05-03 22:30 41.43522 -92.77344 31836 ft 374 kts 270°
2026-05-03 22:30 41.42989 -92.84230 31840 ft 376 kts 270°
2026-05-03 22:31 41.42443 -92.91214 31846 ft 377 kts 270°
2026-05-03 22:31 41.41897 -92.98092 31839 ft 374 kts 270°
2026-05-03 22:32 41.41352 -93.05006 31841 ft 376 kts 269°
2026-05-03 22:32 41.40799 -93.11919 31840 ft 377 kts 270°
2026-05-03 22:33 41.40240 -93.18843 31844 ft 376 kts 270°
2026-05-03 22:33 41.39677 -93.25775 31835 ft 375 kts 270°
2026-05-03 22:34 41.39112 -93.32691 31825 ft 377 kts 270°
2026-05-03 22:34 41.38543 -93.39602 31835 ft 375 kts 270°
2026-05-03 22:35 41.37971 -93.46474 31837 ft 375 kts 269°
2026-05-03 22:35 41.37393 -93.53384 31841 ft 375 kts 270°
2026-05-03 22:36 41.36811 -93.60318 31898 ft 380 kts 270°
2026-05-03 22:36 41.36519 -93.63793 32075 ft 383 kts 270°
2026-05-03 22:36 41.36217 -93.67358 32280 ft 384 kts 269°
2026-05-03 22:36 41.35916 -93.70886 32487 ft 384 kts 269°
2026-05-03 22:37 41.35612 -93.74413 32697 ft 381 kts 269°
2026-05-03 22:37 41.35310 -93.77879 32903 ft 379 kts 269°
2026-05-03 22:37 41.35007 -93.81351 33106 ft 378 kts 269°
2026-05-03 22:37 41.34706 -93.84832 33314 ft 378 kts 269°
2026-05-03 22:38 41.34406 -93.88274 33519 ft 375 kts 269°
2026-05-03 22:38 41.34104 -93.91734 33729 ft 375 kts 270°
2026-05-03 22:38 41.33804 -93.95180 33862 ft 376 kts 269°
2026-05-03 22:39 41.33196 -94.02102 33860 ft 370 kts 269°
2026-05-03 22:39 41.32590 -94.08920 33857 ft 373 kts 270°
2026-05-03 22:40 41.31979 -94.15778 33863 ft 370 kts 270°
2026-05-03 22:40 41.31366 -94.22622 33863 ft 373 kts 270°
2026-05-03 22:41 41.30753 -94.29432 33861 ft 374 kts 270°
2026-05-03 22:41 41.30125 -94.36302 33868 ft 372 kts 269°
2026-05-03 22:42 41.29501 -94.43108 33869 ft 372 kts 269°
2026-05-03 22:42 41.28867 -94.49913 33871 ft 371 kts 269°
2026-05-03 22:43 41.28241 -94.56718 33871 ft 371 kts 269°
2026-05-03 22:43 41.27606 -94.63524 33873 ft 371 kts 269°
2026-05-03 22:44 41.26965 -94.70314 33874 ft 369 kts 269°
2026-05-03 22:44 41.26319 -94.77156 33869 ft 373 kts 269°
2026-05-03 22:45 41.25666 -94.83991 33868 ft 371 kts 269°
2026-05-03 22:45 41.25013 -94.90774 33872 ft 372 kts 269°
2026-05-03 22:46 41.24350 -94.97603 33869 ft 372 kts 269°
2026-05-03 22:46 41.23691 -95.04382 33877 ft 371 kts 268°
2026-05-03 22:47 41.23028 -95.11173 33872 ft 372 kts 268°
2026-05-03 22:47 41.22356 -95.18001 33867 ft 371 kts 268°
2026-05-03 22:48 41.21684 -95.24771 33869 ft 371 kts 268°
2026-05-03 22:48 41.21005 -95.31605 33866 ft 372 kts 269°
2026-05-03 22:49 41.20326 -95.38376 33860 ft 371 kts 268°
2026-05-03 22:49 41.19639 -95.45200 33868 ft 373 kts 268°
2026-05-03 22:50 41.18949 -95.51997 33871 ft 371 kts 268°
2026-05-03 22:50 41.18250 -95.58817 33881 ft 373 kts 268°
2026-05-03 22:51 41.17553 -95.65603 33876 ft 373 kts 268°
2026-05-03 22:51 41.16855 -95.72423 33877 ft 372 kts 268°
2026-05-03 22:52 41.15922 -95.79218 33881 ft 376 kts 263°
2026-05-03 22:52 41.14659 -95.85980 33878 ft 379 kts 262°
2026-05-03 22:53 41.13404 -95.92739 33883 ft 377 kts 263°
2026-05-03 22:53 41.12186 -95.99483 33880 ft 376 kts 262°
2026-05-03 22:54 41.10976 -96.06255 33884 ft 377 kts 262°
2026-05-03 22:54 41.09774 -96.12974 33884 ft 377 kts 262°
2026-05-03 22:55 41.08559 -96.19759 33883 ft 378 kts 262°
2026-05-03 22:55 41.07349 -96.26507 33879 ft 379 kts 263°
2026-05-03 22:56 41.06130 -96.33297 33879 ft 379 kts 262°
2026-05-03 22:56 41.04905 -96.40077 33876 ft 379 kts 262°
2026-05-03 22:57 41.03667 -96.46909 33880 ft 379 kts 262°
2026-05-03 22:57 41.02439 -96.53663 33883 ft 379 kts 262°
2026-05-03 22:58 41.01199 -96.60444 33891 ft 379 kts 262°
2026-05-03 22:58 40.99966 -96.67178 33894 ft 379 kts 261°
2026-05-03 22:59 40.98701 -96.74048 33903 ft 379 kts 262°
2026-05-03 22:59 40.97450 -96.80805 33904 ft 379 kts 262°
2026-05-03 23:00 40.96189 -96.87603 33903 ft 380 kts 261°
2026-05-03 23:00 40.94925 -96.94387 33899 ft 380 kts 261°
2026-05-03 23:01 40.93665 -97.01135 33890 ft 377 kts 262°
2026-05-03 23:01 40.92402 -97.07887 33889 ft 380 kts 261°
2026-05-03 23:02 40.91127 -97.14667 33889 ft 379 kts 262°
2026-05-03 23:02 40.89846 -97.21458 33887 ft 380 kts 261°
2026-05-03 23:03 40.88560 -97.28249 33888 ft 379 kts 261°
2026-05-03 23:03 40.87278 -97.35000 33887 ft 380 kts 261°
2026-05-03 23:04 40.85989 -97.41773 33887 ft 381 kts 261°
2026-05-03 23:04 40.84691 -97.48562 33893 ft 382 kts 261°
2026-05-03 23:05 40.83392 -97.55315 33898 ft 380 kts 261°
2026-05-03 23:05 40.82088 -97.62082 33901 ft 381 kts 261°
2026-05-03 23:06 40.80779 -97.68870 33903 ft 382 kts 260°
2026-05-03 23:06 40.79461 -97.75656 33901 ft 381 kts 260°
2026-05-03 23:07 40.78133 -97.82488 33901 ft 383 kts 260°
2026-05-03 23:07 40.76814 -97.89236 33894 ft 383 kts 260°
2026-05-03 23:08 40.75475 -97.96073 33894 ft 383 kts 260°
2026-05-03 23:08 40.74141 -98.02866 33896 ft 384 kts 260°
2026-05-03 23:09 40.72798 -98.09672 33898 ft 383 kts 260°
2026-05-03 23:09 40.71454 -98.16461 33899 ft 384 kts 260°
2026-05-03 23:10 40.70095 -98.23302 33893 ft 385 kts 260°
2026-05-03 23:10 40.68748 -98.30083 33896 ft 385 kts 260°
2026-05-03 23:11 40.67388 -98.36906 33901 ft 385 kts 260°
2026-05-03 23:11 40.66019 -98.43743 33904 ft 387 kts 260°
2026-05-03 23:12 40.64641 -98.50591 33900 ft 385 kts 260°
2026-05-03 23:12 40.63273 -98.57376 33903 ft 387 kts 260°
2026-05-03 23:13 40.61892 -98.64194 33888 ft 386 kts 259°
2026-05-03 23:13 40.60495 -98.71056 33888 ft 386 kts 259°
2026-05-03 23:14 40.59103 -98.77876 33886 ft 387 kts 259°
2026-05-03 23:14 40.57697 -98.84735 33881 ft 387 kts 259°
2026-05-03 23:15 40.56298 -98.91553 33874 ft 387 kts 259°
2026-05-03 23:15 40.54882 -98.98416 33874 ft 388 kts 259°
2026-05-03 23:16 40.53475 -99.05224 33882 ft 389 kts 259°
2026-05-03 23:16 40.52053 -99.12087 33889 ft 389 kts 259°
2026-05-03 23:17 40.50627 -99.18950 33889 ft 390 kts 259°
2026-05-03 23:17 40.49191 -99.25826 33895 ft 390 kts 259°
2026-05-03 23:18 40.47753 -99.32695 33897 ft 390 kts 259°
2026-05-03 23:18 40.46312 -99.39557 33900 ft 390 kts 259°
2026-05-03 23:19 40.44858 -99.46453 33898 ft 390 kts 259°
2026-05-03 23:19 40.43410 -99.53310 33892 ft 392 kts 259°
2026-05-03 23:20 40.41946 -99.60207 33882 ft 390 kts 259°
2026-05-03 23:20 40.40490 -99.67055 33883 ft 393 kts 258°
2026-05-03 23:21 40.39012 -99.73982 33877 ft 393 kts 258°
2026-05-03 23:21 40.37535 -99.80891 33875 ft 394 kts 258°
2026-05-03 23:22 40.35310 -99.91226 33883 ft 393 kts 258°
2026-05-03 23:22 40.33820 -99.98138 33889 ft 393 kts 258°
2026-05-03 23:23 40.32330 -100.05023 33891 ft 394 kts 258°
2026-05-03 23:23 40.30827 -100.11944 33890 ft 394 kts 258°
2026-05-03 23:24 40.29331 -100.18807 33891 ft 394 kts 258°
2026-05-03 23:24 40.27819 -100.25728 33889 ft 395 kts 258°
2026-05-03 23:25 40.26296 -100.32674 33885 ft 395 kts 258°
2026-05-03 23:25 40.24786 -100.39533 33891 ft 396 kts 258°
2026-05-03 23:26 40.23251 -100.46484 33889 ft 396 kts 258°
2026-05-03 23:26 40.21714 -100.53408 33897 ft 396 kts 258°
2026-05-03 23:27 40.20173 -100.60326 33893 ft 397 kts 257°
2026-05-03 23:27 40.18549 -100.67260 33900 ft 399 kts 256°
2026-05-03 23:28 40.16873 -100.74195 33894 ft 399 kts 256°
2026-05-03 23:28 40.15203 -100.81120 33893 ft 400 kts 256°
2026-05-03 23:29 40.13530 -100.88071 33890 ft 400 kts 256°
2026-05-03 23:29 40.11861 -100.94991 33899 ft 402 kts 256°
2026-05-03 23:30 40.10180 -101.01944 33899 ft 401 kts 256°
2026-05-03 23:30 40.08500 -101.08871 33901 ft 402 kts 256°
2026-05-03 23:31 40.06809 -101.15833 33903 ft 401 kts 256°
2026-05-03 23:31 40.05119 -101.22750 33909 ft 402 kts 256°
2026-05-03 23:32 40.03412 -101.29720 33909 ft 401 kts 256°
2026-05-03 23:32 40.01706 -101.36667 33908 ft 403 kts 256°
2026-05-03 23:33 39.99996 -101.43613 33909 ft 402 kts 256°
2026-05-03 23:33 39.98285 -101.50539 33911 ft 403 kts 256°
2026-05-03 23:34 39.96558 -101.57516 33908 ft 402 kts 256°
2026-05-03 23:34 39.94837 -101.64437 33905 ft 403 kts 256°
2026-05-03 23:35 39.93105 -101.71386 33905 ft 404 kts 255°
2026-05-03 23:35 39.91367 -101.78345 33909 ft 404 kts 255°
2026-05-03 23:36 39.89626 -101.85293 33913 ft 403 kts 255°
2026-05-03 23:36 39.87874 -101.92266 33919 ft 405 kts 255°
2026-05-03 23:37 39.86126 -101.99204 33921 ft 405 kts 255°
2026-05-03 23:37 39.84370 -102.06147 33929 ft 403 kts 255°
2026-05-03 23:38 39.82610 -102.13092 33944 ft 404 kts 255°
2026-05-03 23:38 39.80861 -102.19991 33951 ft 404 kts 255°
2026-05-03 23:39 39.79087 -102.26959 33965 ft 404 kts 255°
2026-05-03 23:39 39.77320 -102.33887 33964 ft 403 kts 255°
2026-05-03 23:40 39.75561 -102.40755 33965 ft 403 kts 255°
2026-05-03 23:40 39.73788 -102.47665 33964 ft 402 kts 255°
2026-05-03 23:41 39.72006 -102.54591 33966 ft 404 kts 255°
2026-05-03 23:41 39.70216 -102.61518 33971 ft 403 kts 255°
2026-05-03 23:42 39.68428 -102.68429 33978 ft 403 kts 255°
2026-05-03 23:42 39.66662 -102.75235 33988 ft 404 kts 255°
2026-05-03 23:43 39.64871 -102.82101 33984 ft 402 kts 255°
2026-05-03 23:43 39.63078 -102.88970 33993 ft 403 kts 255°
2026-05-03 23:44 39.61275 -102.95864 33997 ft 403 kts 255°
2026-05-03 23:44 39.59468 -103.02744 34000 ft 402 kts 255°
2026-05-03 23:45 39.57660 -103.09594 34005 ft 402 kts 255°
2026-05-03 23:45 39.55839 -103.16487 34007 ft 403 kts 255°
2026-05-03 23:46 39.54022 -103.23357 34005 ft 404 kts 255°
2026-05-03 23:46 39.52191 -103.30235 34014 ft 404 kts 255°
2026-05-03 23:47 39.50357 -103.37114 34016 ft 404 kts 254°
2026-05-03 23:47 39.48521 -103.43976 34023 ft 404 kts 255°
2026-05-03 23:48 39.46671 -103.50871 34024 ft 405 kts 255°
2026-05-03 23:48 39.44822 -103.57745 34030 ft 405 kts 254°
2026-05-03 23:49 39.42983 -103.64573 34024 ft 404 kts 255°
2026-05-03 23:49 39.41117 -103.71486 34018 ft 404 kts 254°
2026-05-03 23:50 39.39267 -103.78311 34017 ft 404 kts 254°
2026-05-03 23:50 39.37400 -103.85186 34049 ft 403 kts 254°
2026-05-03 23:51 39.35540 -103.92028 34059 ft 404 kts 254°
2026-05-03 23:51 39.33676 -103.98851 34081 ft 404 kts 254°
2026-05-03 23:52 39.31799 -104.05705 34072 ft 404 kts 254°
2026-05-03 23:52 39.29926 -104.12535 34078 ft 405 kts 253°
2026-05-03 23:53 39.28040 -104.19395 34086 ft 405 kts 253°
2026-05-03 23:53 39.26155 -104.26234 34101 ft 405 kts 254°
2026-05-03 23:54 39.24269 -104.33055 34111 ft 404 kts 254°
2026-05-03 23:54 39.22373 -104.39892 34117 ft 405 kts 253°
2026-05-03 23:55 39.20470 -104.46735 34142 ft 404 kts 253°
2026-05-03 23:55 39.18562 -104.53577 34140 ft 406 kts 253°
2026-05-03 23:56 39.16650 -104.60405 34140 ft 403 kts 253°
2026-05-03 23:56 39.14743 -104.67194 34133 ft 403 kts 253°
2026-05-03 23:57 39.12827 -104.74011 34141 ft 403 kts 253°
2026-05-03 23:57 39.10903 -104.80834 34141 ft 403 kts 253°
2026-05-03 23:58 39.09000 -104.87572 34150 ft 402 kts 253°
2026-05-03 23:58 39.07084 -104.94343 34190 ft 402 kts 253°
2026-05-03 23:59 39.05157 -105.01144 34195 ft 404 kts 253°
2026-05-03 23:59 39.03229 -105.07928 34236 ft 404 kts 253°
2026-05-04 00:00 39.01298 -105.14681 34246 ft 404 kts 253°
2026-05-04 00:00 38.99347 -105.21489 34240 ft 404 kts 253°
2026-05-04 00:01 38.97401 -105.28266 34248 ft 405 kts 253°
2026-05-04 00:01 38.95451 -105.35026 34249 ft 404 kts 253°
2026-05-04 00:02 38.93496 -105.41799 34259 ft 405 kts 253°
2026-05-04 00:02 38.91534 -105.48579 34266 ft 405 kts 253°
2026-05-04 00:03 38.89568 -105.55360 34268 ft 405 kts 253°
2026-05-04 00:03 38.87600 -105.62128 34271 ft 404 kts 253°
2026-05-04 00:04 38.85616 -105.68928 34280 ft 407 kts 252°
2026-05-04 00:04 38.83648 -105.75662 34280 ft 405 kts 252°
2026-05-04 00:05 38.81656 -105.82458 34277 ft 406 kts 252°
2026-05-04 00:05 38.79668 -105.89229 34265 ft 405 kts 252°
2026-05-04 00:06 38.77660 -105.96044 34256 ft 406 kts 252°
2026-05-04 00:06 38.75652 -106.02843 34249 ft 407 kts 252°
2026-05-04 00:07 38.73656 -106.09580 34275 ft 404 kts 252°
2026-05-04 00:07 38.71660 -106.16303 34268 ft 405 kts 252°
2026-05-04 00:08 38.69668 -106.23000 34269 ft 401 kts 252°
2026-05-04 00:08 38.67664 -106.29725 34256 ft 403 kts 252°
2026-05-04 00:09 38.65671 -106.36397 34266 ft 403 kts 252°
2026-05-04 00:09 38.63670 -106.43079 34291 ft 403 kts 252°
2026-05-04 00:10 38.61666 -106.49748 34302 ft 400 kts 252°
2026-05-04 00:10 38.59666 -106.56392 34319 ft 399 kts 252°
2026-05-04 00:11 38.57667 -106.63014 34326 ft 396 kts 252°
2026-05-04 00:11 38.55692 -106.69549 34315 ft 400 kts 252°
2026-05-04 00:12 38.53669 -106.76217 34320 ft 398 kts 252°
2026-05-04 00:12 38.51667 -106.82797 34306 ft 397 kts 252°
2026-05-04 00:13 38.49674 -106.89342 34257 ft 396 kts 252°
2026-05-04 00:13 38.47665 -106.95915 34269 ft 397 kts 252°
2026-05-04 00:14 38.45676 -107.02418 34297 ft 394 kts 252°
2026-05-04 00:14 38.43628 -107.08910 34335 ft 394 kts 251°
2026-05-04 00:15 38.41497 -107.15317 34362 ft 394 kts 250°
2026-05-04 00:15 38.39354 -107.21725 34369 ft 392 kts 251°
2026-05-04 00:16 38.37230 -107.28116 34372 ft 390 kts 251°
2026-05-04 00:16 38.35118 -107.34460 34357 ft 388 kts 251°
2026-05-04 00:17 38.33004 -107.40810 34350 ft 387 kts 251°
2026-05-04 00:17 38.30896 -107.47125 34338 ft 388 kts 251°
2026-05-04 00:18 38.28788 -107.53419 34338 ft 385 kts 251°
2026-05-04 00:18 38.26693 -107.59666 34334 ft 384 kts 251°
2026-05-04 00:19 38.24579 -107.65955 34340 ft 384 kts 250°
2026-05-04 00:19 38.22486 -107.72163 34333 ft 384 kts 251°
2026-05-04 00:20 38.20387 -107.78370 34342 ft 380 kts 250°
2026-05-04 00:20 38.18294 -107.84561 34332 ft 382 kts 251°
2026-05-04 00:21 38.16190 -107.90768 34314 ft 379 kts 250°
2026-05-04 00:21 38.14119 -107.96870 34308 ft 379 kts 250°
2026-05-04 00:22 38.12036 -108.03001 34304 ft 377 kts 251°
2026-05-04 00:22 38.09960 -108.09082 34297 ft 375 kts 250°
2026-05-04 00:23 38.07875 -108.15174 34319 ft 373 kts 251°
2026-05-04 00:23 38.05811 -108.21212 34303 ft 372 kts 251°
2026-05-04 00:24 38.03752 -108.27213 34286 ft 371 kts 251°
2026-05-04 00:24 38.01670 -108.33270 34267 ft 373 kts 251°
2026-05-04 00:25 37.99602 -108.39278 34247 ft 371 kts 251°
2026-05-04 00:25 37.97540 -108.45251 34254 ft 372 kts 250°
2026-05-04 00:26 37.95465 -108.51244 34226 ft 369 kts 251°
2026-05-04 00:26 37.93391 -108.57220 34215 ft 370 kts 250°
2026-05-04 00:27 37.91330 -108.63158 34201 ft 368 kts 251°
2026-05-04 00:27 37.89267 -108.69092 34205 ft 370 kts 250°
2026-05-04 00:28 37.87181 -108.75067 34191 ft 367 kts 250°
2026-05-04 00:28 37.85121 -108.80961 34186 ft 369 kts 250°
2026-05-04 00:29 37.83042 -108.86898 34173 ft 365 kts 250°
2026-05-04 00:29 37.81036 -108.92796 34172 ft 365 kts 253°
2026-05-04 00:30 37.79583 -108.98869 34158 ft 363 kts 257°
2026-05-04 00:30 37.78360 -109.05073 34157 ft 362 kts 258°
2026-05-04 00:31 37.77129 -109.11235 34150 ft 362 kts 257°
2026-05-04 00:31 37.75867 -109.17406 34139 ft 361 kts 257°
2026-05-04 00:32 37.74603 -109.23543 34135 ft 362 kts 257°
2026-05-04 00:32 37.73328 -109.29707 34125 ft 360 kts 258°
2026-05-04 00:33 37.71421 -109.38898 34101 ft 359 kts 257°
2026-05-04 00:34 37.70149 -109.44984 34097 ft 360 kts 257°
2026-05-04 00:34 37.68858 -109.51154 34101 ft 361 kts 257°
2026-05-04 00:35 37.67580 -109.57237 34099 ft 360 kts 257°
2026-05-04 00:35 37.66291 -109.63339 34092 ft 360 kts 257°
2026-05-04 00:36 37.64995 -109.69484 34101 ft 360 kts 256°
2026-05-04 00:36 37.63702 -109.75571 34116 ft 358 kts 256°
2026-05-04 00:37 37.62408 -109.81651 34113 ft 357 kts 257°
2026-05-04 00:37 37.61120 -109.87701 34113 ft 360 kts 256°
2026-05-04 00:38 37.59821 -109.93780 34111 ft 359 kts 256°
2026-05-04 00:38 37.58527 -109.99835 34110 ft 356 kts 256°
2026-05-04 00:39 37.57229 -110.05902 34100 ft 359 kts 256°
2026-05-04 00:39 37.55922 -110.11957 34088 ft 356 kts 256°
2026-05-04 00:40 37.54625 -110.17979 34086 ft 355 kts 256°
2026-05-04 00:40 37.53324 -110.23984 34082 ft 356 kts 255°
2026-05-04 00:41 37.52020 -110.29967 34085 ft 355 kts 256°
2026-05-04 00:41 37.50709 -110.35980 34083 ft 357 kts 255°
2026-05-04 00:42 37.49396 -110.42002 34076 ft 355 kts 256°
2026-05-04 00:42 37.48079 -110.48000 34078 ft 357 kts 256°
2026-05-04 00:43 37.46747 -110.54057 34069 ft 357 kts 256°
2026-05-04 00:43 37.45438 -110.60044 34066 ft 356 kts 255°
2026-05-04 00:44 37.44110 -110.66042 34059 ft 355 kts 255°
2026-05-04 00:44 37.42774 -110.72041 34056 ft 355 kts 255°
2026-05-04 00:45 37.41441 -110.78071 34049 ft 356 kts 256°
2026-05-04 00:45 37.40116 -110.84032 34056 ft 354 kts 255°
2026-05-04 00:46 37.38778 -110.90036 34068 ft 357 kts 255°
2026-05-04 00:46 37.37435 -110.96049 34074 ft 355 kts 255°
2026-05-04 00:47 37.36094 -111.02033 34075 ft 356 kts 255°
2026-05-04 00:47 37.34747 -111.08030 34073 ft 357 kts 255°
2026-05-04 00:48 37.33390 -111.14033 34073 ft 358 kts 256°
2026-05-04 00:48 37.32031 -111.20055 34019 ft 359 kts 255°
2026-05-04 00:48 37.31346 -111.23090 33640 ft 361 kts 255°
2026-05-04 00:49 37.30655 -111.26128 33254 ft 361 kts 255°
2026-05-04 00:49 37.29967 -111.29158 32885 ft 365 kts 255°
2026-05-04 00:49 37.29267 -111.32246 32518 ft 370 kts 255°
2026-05-04 00:49 37.28560 -111.35361 32151 ft 375 kts 254°
2026-05-04 00:50 37.27843 -111.38509 32070 ft 373 kts 255°
2026-05-04 00:50 37.26400 -111.44831 32080 ft 378 kts 254°
2026-05-04 00:51 37.24952 -111.51134 32080 ft 376 kts 255°
2026-05-04 00:51 37.23492 -111.57491 32077 ft 378 kts 254°
2026-05-04 00:52 37.22041 -111.63797 32084 ft 377 kts 255°
2026-05-04 00:52 37.20575 -111.70151 32077 ft 378 kts 253°
2026-05-04 00:53 37.19065 -111.76472 32074 ft 377 kts 253°
2026-05-04 00:53 37.17395 -111.82674 32076 ft 376 kts 252°
2026-05-04 00:54 37.15684 -111.88904 32080 ft 380 kts 251°
2026-05-04 00:54 37.13976 -111.95152 32076 ft 378 kts 252°
2026-05-04 00:55 37.12274 -112.01405 32073 ft 376 kts 252°
2026-05-04 00:55 37.10583 -112.07634 32056 ft 376 kts 252°
2026-05-04 00:56 37.08902 -112.13810 32072 ft 377 kts 251°
2026-05-04 00:56 37.07213 -112.20001 32075 ft 375 kts 251°
2026-05-04 00:57 37.05523 -112.26176 32064 ft 376 kts 252°
2026-05-04 00:57 37.03822 -112.32383 32063 ft 375 kts 252°
2026-05-04 00:58 37.02142 -112.38511 32061 ft 375 kts 252°
2026-05-04 00:58 37.00450 -112.44684 32048 ft 374 kts 252°
2026-05-04 00:59 36.98756 -112.50835 32042 ft 375 kts 252°
2026-05-04 00:59 36.97064 -112.56957 32049 ft 373 kts 252°
2026-05-04 01:00 36.95354 -112.63120 32055 ft 375 kts 253°
2026-05-04 01:00 36.93657 -112.69233 32071 ft 372 kts 252°
2026-05-04 01:01 36.91955 -112.75355 32067 ft 372 kts 252°
2026-05-04 01:01 36.90250 -112.81462 32061 ft 370 kts 252°
2026-05-04 01:02 36.88538 -112.87585 31783 ft 374 kts 252°
2026-05-04 01:02 36.87677 -112.90658 31528 ft 374 kts 252°
2026-05-04 01:02 36.86822 -112.93708 31278 ft 376 kts 252°
2026-05-04 01:02 36.85959 -112.96783 31029 ft 379 kts 252°
2026-05-04 01:03 36.85081 -112.99905 30766 ft 380 kts 252°
2026-05-04 01:03 36.84203 -113.03029 30519 ft 380 kts 252°
2026-05-04 01:03 36.83332 -113.06120 30270 ft 381 kts 252°
2026-05-04 01:03 36.82448 -113.09255 30013 ft 382 kts 251°
2026-05-04 01:04 36.81568 -113.12369 29677 ft 381 kts 252°
2026-05-04 01:04 36.80680 -113.15507 29171 ft 381 kts 252°
2026-05-04 01:04 36.79802 -113.18607 28661 ft 378 kts 251°
2026-05-04 01:04 36.78941 -113.21641 28162 ft 374 kts 251°
2026-05-04 01:05 36.78071 -113.24706 27662 ft 375 kts 251°
2026-05-04 01:05 36.77192 -113.27799 27155 ft 377 kts 251°
2026-05-04 01:05 36.76317 -113.30876 26650 ft 377 kts 250°
2026-05-04 01:05 36.75449 -113.33927 26160 ft 375 kts 250°
2026-05-04 01:06 36.74574 -113.37000 25656 ft 374 kts 250°
2026-05-04 01:06 36.73704 -113.40054 25153 ft 375 kts 250°
2026-05-04 01:06 36.72831 -113.43110 24649 ft 374 kts 250°
2026-05-04 01:06 36.71968 -113.46127 24151 ft 374 kts 249°
2026-05-04 01:07 36.71084 -113.49228 23627 ft 375 kts 250°
2026-05-04 01:07 36.70213 -113.52286 23112 ft 375 kts 249°
2026-05-04 01:07 36.69351 -113.55311 22605 ft 375 kts 249°
2026-05-04 01:07 36.68475 -113.58382 22076 ft 372 kts 249°
2026-05-04 01:08 36.67607 -113.61417 21584 ft 370 kts 249°
2026-05-04 01:08 36.66754 -113.64399 21102 ft 369 kts 249°
2026-05-04 01:08 36.65890 -113.67416 20609 ft 367 kts 248°
2026-05-04 01:08 36.65033 -113.70409 20126 ft 367 kts 248°
2026-05-04 01:09 36.64177 -113.73393 19645 ft 366 kts 248°
2026-05-04 01:09 36.63320 -113.76375 19154 ft 365 kts 247°
2026-05-04 01:09 36.62468 -113.79340 18667 ft 364 kts 247°
2026-05-04 01:09 36.61614 -113.82302 18182 ft 364 kts 247°
2026-05-04 01:10 36.60760 -113.85261 17703 ft 364 kts 247°
2026-05-04 01:10 36.59898 -113.88227 17235 ft 362 kts 246°
2026-05-04 01:10 36.58956 -113.91095 16913 ft 353 kts 242°
2026-05-04 01:10 36.57776 -113.93733 16605 ft 343 kts 234°
2026-05-04 01:11 36.56411 -113.96107 16308 ft 334 kts 230°
2026-05-04 01:11 36.54988 -113.98341 16031 ft 326 kts 228°
2026-05-04 01:11 36.53573 -114.00513 15757 ft 319 kts 228°
2026-05-04 01:11 36.52191 -114.02655 15493 ft 313 kts 229°
2026-05-04 01:12 36.50863 -114.04755 15239 ft 306 kts 229°
2026-05-04 01:12 36.49568 -114.06826 14979 ft 300 kts 229°
2026-05-04 01:12 36.48306 -114.08855 14726 ft 294 kts 229°
2026-05-04 01:12 36.47067 -114.10850 14498 ft 293 kts 229°
2026-05-04 01:13 36.45819 -114.12859 14269 ft 292 kts 229°
2026-05-04 01:13 36.44572 -114.14859 14039 ft 291 kts 229°
2026-05-04 01:13 36.43330 -114.16852 13810 ft 293 kts 229°
2026-05-04 01:13 36.42083 -114.18849 13592 ft 291 kts 228°
2026-05-04 01:14 36.40845 -114.20833 13374 ft 289 kts 228°
2026-05-04 01:14 36.39615 -114.22808 13159 ft 288 kts 228°
2026-05-04 01:14 36.38389 -114.24760 12932 ft 286 kts 228°
2026-05-04 01:14 36.37150 -114.26703 12709 ft 285 kts 228°
2026-05-04 01:15 36.35921 -114.28624 12490 ft 284 kts 228°
2026-05-04 01:15 36.34687 -114.30552 12273 ft 286 kts 228°
2026-05-04 01:15 36.33452 -114.32486 12053 ft 285 kts 228°
2026-05-04 01:15 36.32225 -114.34410 11834 ft 284 kts 228°
2026-05-04 01:16 36.31001 -114.36328 11615 ft 283 kts 228°
2026-05-04 01:16 36.29785 -114.38235 11395 ft 281 kts 228°
2026-05-04 01:16 36.28581 -114.40119 11173 ft 276 kts 228°
2026-05-04 01:16 36.27398 -114.41968 10943 ft 270 kts 228°
2026-05-04 01:17 36.26244 -114.43778 10732 ft 265 kts 228°
2026-05-04 01:17 36.25112 -114.45550 10527 ft 261 kts 227°
2026-05-04 01:17 36.23964 -114.47314 10306 ft 264 kts 227°
2026-05-04 01:17 36.22807 -114.49078 10081 ft 262 kts 227°
2026-05-04 01:18 36.21661 -114.50827 9863 ft 261 kts 227°
2026-05-04 01:18 36.20507 -114.52595 9654 ft 262 kts 227°
2026-05-04 01:18 36.19381 -114.54324 9552 ft 258 kts 227°
2026-05-04 01:18 36.18235 -114.56073 9525 ft 261 kts 227°
2026-05-04 01:19 36.17085 -114.57828 9295 ft 261 kts 227°
2026-05-04 01:19 36.15945 -114.59573 9056 ft 260 kts 228°
2026-05-04 01:19 36.14809 -114.61307 8816 ft 258 kts 227°
2026-05-04 01:19 36.13685 -114.63026 8577 ft 257 kts 228°
2026-05-04 01:20 36.12550 -114.64764 8337 ft 259 kts 228°
2026-05-04 01:20 36.11409 -114.66506 8095 ft 256 kts 227°
2026-05-04 01:20 36.10293 -114.68201 7857 ft 256 kts 227°
2026-05-04 01:20 36.09172 -114.69908 7626 ft 253 kts 227°
2026-05-04 01:21 36.08079 -114.71637 7400 ft 255 kts 232°
2026-05-04 01:21 36.07397 -114.73640 7182 ft 251 kts 254°
2026-05-04 01:21 36.07288 -114.75754 6972 ft 243 kts 264°
2026-05-04 01:21 36.07332 -114.77799 6759 ft 232 kts 265°
2026-05-04 01:22 36.07354 -114.79744 6562 ft 219 kts 263°
2026-05-04 01:22 36.07350 -114.81548 6505 ft 199 kts 263°
2026-05-04 01:22 36.07349 -114.83214 6514 ft 192 kts 263°
2026-05-04 01:22 36.07344 -114.84906 6328 ft 201 kts 263°
2026-05-04 01:23 36.07350 -114.86639 5970 ft 198 kts 263°
2026-05-04 01:23 36.07365 -114.88302 5731 ft 190 kts 264°
2026-05-04 01:23 36.07364 -114.89919 5484 ft 191 kts 263°
2026-05-04 01:23 36.07357 -114.91586 5234 ft 195 kts 264°
2026-05-04 01:24 36.07360 -114.93233 4986 ft 190 kts 264°
2026-05-04 01:24 36.07362 -114.94892 4733 ft 191 kts 264°
2026-05-04 01:24 36.07357 -114.96505 4494 ft 189 kts 263°
2026-05-04 01:24 36.07355 -114.98154 4243 ft 187 kts 263°
2026-05-04 01:25 36.07367 -114.99750 4007 ft 187 kts 264°
2026-05-04 01:25 36.07366 -115.01366 3763 ft 187 kts 264°
2026-05-04 01:25 36.07370 -115.02957 3531 ft 184 kts 264°
2026-05-04 01:25 36.07359 -115.04522 3304 ft 183 kts 263°
2026-05-04 01:26 36.07365 -115.06100 3064 ft 181 kts 265°
2026-05-04 01:26 36.07381 -115.07674 2880 ft 187 kts 265°
2026-05-04 01:26 36.07420 -115.09310 2604 ft 187 kts 265°
2026-05-04 01:26 36.07397 -115.10869 2304 ft 180 kts 263°
2026-05-04 01:27 36.07378 -115.12376 2127 ft 170 kts 263°
2026-05-04 01:27 36.07365 -115.13814 2099 ft 158 kts 265°
2026-05-04 01:27 36.07358 -115.14852 2130 ft 77 kts 272°
2026-05-04 01:27 36.07380 -115.15245 2144 ft 31 kts 281°
2026-05-04 01:28 36.07438 -115.15440 2150 ft 8 kts 298°
2026-05-04 01:28 36.07441 -115.15447 2151 ft 0 kts 298°
2026-05-04 01:30 36.07441 -115.15448 2151 ft 0 kts 298°
2026-05-04 01:30 36.07454 -115.15478 2151 ft 7 kts 299°
2026-05-04 01:30 36.07490 -115.15550 2153 ft 10 kts 305°
2026-05-04 01:30 36.07523 -115.15602 2155 ft 5 kts 311°
2026-05-04 01:31 36.07530 -115.15610 2155 ft 0 kts 312°
2026-05-04 01:32 36.07557 -115.15646 2156 ft 12 kts 314°
2026-05-04 01:33 36.07639 -115.15747 2158 ft 17 kts 315°
2026-05-04 01:33 36.07727 -115.15819 2159 ft 14 kts 346°
2026-05-04 01:33 36.07802 -115.15762 2156 ft 14 kts 81°
2026-05-04 01:33 36.07803 -115.15622 2151 ft 19 kts 91°
2026-05-04 01:34 36.07804 -115.15441 2144 ft 22 kts 89°
2026-05-04 01:34 36.07804 -115.15239 2138 ft 24 kts 90°
2026-05-04 01:34 36.07799 -115.15026 2131 ft 25 kts 95°
2026-05-04 01:34 36.07781 -115.14806 2123 ft 26 kts 95°
2026-05-04 01:35 36.07766 -115.14571 2116 ft 27 kts 94°
2026-05-04 01:35 36.07756 -115.14355 2109 ft 21 kts 93°
2026-05-04 01:35 36.07756 -115.14203 2104 ft 13 kts 71°
2026-05-04 01:35 36.07839 -115.14159 2101 ft 14 kts
2026-05-04 01:36 36.07935 -115.14159 2100 ft 13 kts 359°
2026-05-04 01:36 36.08029 -115.14159 2099 ft 12 kts
2026-05-04 01:36 36.08086 -115.14136 2098 ft 6 kts 38°
2026-05-04 01:36 36.08126 -115.14102 2096 ft 8 kts 17°
2026-05-04 01:37 36.08208 -115.14110 2095 ft 14 kts 351°
2026-05-04 01:37 36.08301 -115.14101 2093 ft 11 kts 23°
2026-05-04 01:37 36.08357 -115.14044 2091 ft 9 kts 55°
2026-05-04 01:37 36.08386 -115.13966 2088 ft 10 kts 76°
2026-05-04 01:38 36.08393 -115.13879 2085 ft 9 kts 98°
2026-05-04 01:38 36.08373 -115.13841 2085 ft 3 kts 136°
2026-05-04 01:38 36.08348 -115.13829 2085 ft 4 kts 189°
2026-05-04 01:38 36.08323 -115.13843 2085 ft 5 kts 212°
2026-05-04 01:39 36.08293 -115.13872 2086 ft 3 kts 221°
2026-05-04 01:39 36.08290 -115.13875 2087 ft 0 kts 221°